Location: Bastogne Gables
(35.1554°N, 78.9900°W)
Time: 02:29:01
(UTC+00:00)

Cosmos 2058 Rocket - Pass Details

Date: 29 October 2020
Orbit: 610 x 639 km, 82.5° (Epoch: 26 November)

Event Time Altitude Azimuth Distance (km) Brightness Sun altitude
Rises 23:05:42 0° 189° (S) 2,908 6.8 -9.1°
Reaches altitude 10° 23:07:56 10° 191° (S) 2,009 6.0 -9.6°
Maximum altitude 23:12:23 75° 277° (W) 661 3.3 -10.5°
Drops below altitude 10° 23:16:54 10° 3° (N) 2,034 5.6 -11.4°
Sets 23:19:10 0° 5° (N) 2,948 6.4 -11.9°
